Temp
61 59 59 58 57 59 58 58 58 57 58 58 58 58 60 61 60 59 60 60 60 60 62 61 61 60 60 61 62 61 60 61 60 60 58 58 60 58 58 58 59 59 58 57 62 60 58 55 56 60 62 62 62 62 62 61 61 60 59 58 58 57 57
60 59 59 59 58 58 57 57 58 57 58 57 57 58 59 60 62 60 59 59 59 60 62 59 60 60 60 60 60 59 60 59 60 61 60 59 58 58 57 57 58 58 58 58 58 59 59 56 55 57 57 60 60 60 59 59 59 59 58 58 58 57 57
60 59 59 57 57 57 58 57 57 58 57 57 57 57 58 59 60 60 58 59 58 60 61 59 59 59 59 60 60 60 59 59 58 61 61 59 59 58 59 59 58 57 58 58 57 60 59 60 56 56 57 58 56 57 59 58 58 58 58 57 56 57 56
60 59 57 56 56 57 58 56 57 56 56 56 56 57 57 58 59 60 59 59 60 61 60 59 59 60 59 59 58 59 59 60 58 59 58 58 58 59 58 60 60 60 58 56 57 58 58 58 57 57 58 59 58 55 57 58 58 58 58 57 56 56 56
60 60 58 57 57 57 57 56 55 56 56 56 55 56 56 58 59 58 59 59 58 57 57 58 58 58 58 58 58 58 58 58 58 59 58 58 58 58 58 58 59 57 55 59 59 60 59 59 59 57 57 58 58 57 59 58 59 58 58 58 58 57 56
61 59 59 57 57 57 56 56 56 56 55 58 56 56 56 57 59 59 59 58 58 58 57 58 57 57 57 57 57 57 57 58 58 58 58 58 58 59 59 58 59 57 57 59 60 60 60 61 60 57 58 60 55 56 58 57 58 59 59 59 59 58 58
60 60 59 59 57 57 57 57 57 57 57 58 56 56 56 57 58 58 58 56 56 57 57 56 56 57 56 57 57 56 56 55 56 57 57 56 56 56 58 58 58 58 58 59 60 61 60 60 58 57 56 57 57 56 57 57 58 58 59 59 59 59 58
60 60 59 59 58 57 56 57 57 56 58 57 56 57 56 56 56 56 57 57 56 56 57 57 57 56 56 57 56 55 55 55 56 56 55 56 56 56 57 58 57 58 58 59 61 61 62 61 60 58 57 53 53 53 54 56 54 56 57 58 59 59 58
61 59 58 59 58 59 58 58 57 57 57 56 55 56 55 57 57 57 57 55 55 55 56 56 56 56 55 56 55 56 56 57 55 55 54 55 55 55 55 56 58 58 58 59 61 61 62 62 61 60 59 58 54 51 53 55 53 56 57 58 59 58 58
60 60 59 59 58 58 59 58 57 56 56 56 56 55 55 55 55 56 56 55 54 54 55 55 55 55 55 56 55 55 55 54 55 54 54 54 53 54 55 56 57 57 58 59 60 60 60 60 61 60 61 60 59 55 51 51 53 52 57 56 58 59 58
61 61 60 59 58 57 56 57 56 56 56 56 56 57 55 55 56 58 55 54 53 54 54 54 54 54 55 54 53 53 53 54 55 55 54 54 54 55 55 56 57 57 58 59 60 60 60 60 60 60 59 59 60 58 52 53 54 51 56 54 54 59 56
60 60 60 59 58 57 57 56 57 56 55 56 57 55 54 55 54 53 54 54 54 53 53 53 54 54 55 55 55 54 53 53 55 54 53 55 54 55 55 55 55 56 57 58 59 59 59 60 60 60 58 58 57 57 55 55 54 55 56 57 56 55 58
60 60 59 58 58 57 58 57 56 56 56 56 55 55 55 55 54 54 53 54 53 53 53 52 53 54 53 53 53 54 52 53 55 54 54 54 55 54 55 55 55 55 56 58 58 59 59 59 60 60 58 58 56 56 57 53 54 57 54 57 56 56 57
58 59 58 58 57 57 58 58 57 57 56 55 55 55 55 54 54 55 54 55 55 54 53 53 52 53 54 53 52 52 52 54 55 54 55 55 54 55 55 55 54 54 56 57 57 57 58 59 59 59 59 58 56 56 58 54 55 55 55 52 53 56 56
58 58 58 57 58 58 58 58 57 56 56 55 55 55 54 54 54 55 55 55 54 53 53 53 52 53 54 54 53 53 52 53 54 53 54 55 54 54 54 55 54 54 55 56 55 58 58 58 59 60 59 58 58 56 56 55 53 55 56 55 56 54 55
58 57 57 56 57 58 58 58 58 56 56 55 54 55 54 54 54 55 55 54 54 54 54 54 53 53 53 54 55 53 52 52 55 55 55 55 56 54 55 55 54 54 55 55 53 54 55 57 58 59 58 58 58 57 57 56 54 55 55 55 53 56 56
58 58 57 57 58 58 58 58 58 56 56 56 56 54 54 54 54 54 55 54 54 54 54 54 54 54 55 55 55 54 53 52 53 54 55 55 55 55 56 56 55 54 54 54 53 53 53 54 55 57 58 57 57 56 56 54 56 53 54 57 53 58 56
57 57 57 57 58 58 58 58 58 57 56 57 55 54 55 54 53 54 55 55 54 54 54 54 54 53 53 53 54 54 54 53 53 52 53 53 56 54 55 57 54 53 54 55 53 54 54 55 55 55 56 56 57 56 56 56 55 54 56 56 55 53 53
57 56 56 57 57 57 57 58 57 56 58 57 54 54 54 54 55 55 54 54 55 54 53 54 55 54 54 53 53 53 53 53 53 53 53 52 55 52 54 54 53 53 55 56 55 53 53 54 53 54 55 55 57 56 56 55 55 56 58 57 56 54 54
56 56 55 55 56 57 58 58 57 57 57 57 57 55 54 54 55 54 54 54 54 54 54 53 54 53 53 53 54 54 53 53 53 53 53 54 54 53 53 54 53 52 54 54 54 54 53 53 54 53 53 53 54 55 54 55 55 55 55 55 54 54 54
57 56 56 56 56 56 57 57 56 55 56 56 56 56 55 55 54 54 54 55 54 54 54 54 53 54 54 53 54 53 54 54 55 54 54 54 54 54 54 54 55 54 54 54 55 53 54 54 53 54 52 53 53 54 54 53 53 54 54 54 54 53 51
57 57 57 56 56 57 56 56 56 56 56 56 56 56 55 55 55 55 54 54 55 55 54 55 54 54 55 54 53 54 54 55 54 55 55 55 55 54 54 54 55 54 56 56 53 53 54 54 55 55 52 52 53 54 53 53 53 53 53 54 52 50 52
56 56 56 56 57 57 55 55 55 56 56 55 55 55 55 55 55 55 56 55 55 55 55 55 56 53 53 56 54 55 55 55 54 55 56 55 55 55 55 54 54 58 56 55 52 48 47 49 53 56 55 53 54 54 54 53 53 53 53 54 54 53 53
55 55 55 55 55 56 56 55 54 54 53 53 53 54 55 54 54 55 55 56 55 55 56 57 52 48 47 50 56 55 56 55 55 55 55 56 57 57 56 55 53 55 57 55 53 46 45 46 47 49 48 50 53 56 54 53 53 52 53 54 52 52 54
55 54 55 55 55 55 55 55 54 54 53 53 53 52 52 51 52 53 54 54 54 55 55 54 49 47 46 45 50 57 56 56 55 55 55 55 56 56 56 56 55 55 56 56 55 52 49 45 45 46 44 44 45 47 49 56 55 51 52 53 51 53 53
54 53 54 54 54 54 55 54 53 53 53 52 52 52 51 52 51 50 52 54 53 52 53 48 45 46 46 45 44 50 57 56 56 55 55 56 56 55 55 55 55 55 55 57 58 55 54 53 46 45 44 44 44 44 43 44 47 58 56 55 55 52 53
50 50 50 50 51 51 51 51 51 50 51 52 52 52 52 51 50 51 51 52 51 51 52 46 41 40 41 41 41 44 55 55 56 56 56 56 55 55 55 55 55 55 55 55 56 55 54 53 52 51 50 50 52 50 45 43 42 41 49 57 56 56 54
50 49 49 48 48 48 48 48 49 49 49 49 50 49 49 49 49 49 49 50 50 51 51 42 41 40 39 39 39 41 51 52 54 54 55 55 55 55 55 55 55 55 55 55 55 54 53 53 52 51 51 51 51 50 49 48 49 50 51 52 54 56 55
48 48 49 48 47 47 47 46 46 47 47 47 47 47 47 47 48 49 49 49 49 50 51 43 42 42 41 40 40 47 49 51 52 53 53 54 54 55 55 54 54 54 55 55 52 46 49 53 52 52 52 50 48 46 45 44 41 41 46 50 51 52 52
46 46 47 46 46 45 45 45 45 46 46 46 45 45 45 46 46 47 48 48 48 49 49 45 41 41 41 41 43 48 49 50 51 52 53 54 54 54 54 54 54 54 54 55 50 45 42 47 52 52 51 49 49 48 46 45 41 39 39 39 40 39 40
46 46 46 45 44 44 44 44 44 45 44 45 45 45 45 45 45 45 46 46 48 46 47 45 41 40 41 41 43 48 50 50 51 51 52 53 52 52 53 52 54 54 54 54 47 44 40 47 52 52 51 49 48 48 47 45 46 44 41 40 40 40 40
45 44 44 44 45 44 44 44 45 45 44 43 43 44 45 44 44 44 44 45 48 46 45 45 42 40 40 40 44 48 48 50 50 51 51 52 52 51 51 51 50 51 53 51 45 42 40 46 52 51 51 49 48 48 48 45 46 46 46 46 45 45 43
45 45 44 44 44 44 45 45 44 44 44 44 44 43 44 44 43 43 44 44 44 45 45 45 44 39 40 40 41 46 48 49 50 51 51 51 51 52 51 51 49 42 40 41 41 41 40 41 51 52 51 50 49 49 49 46 47 47 46 46 44 44 43
44 44 44 43 44 45 45 44 44 44 43 43 43 43 42 42 42 42 43 43 44 44 46 44 43 39 39 39 40 41 48 48 49 50 50 50 50 50 52 52 52 48 43 41 39 39 40 39 43 51 50 50 51 50 45 46 46 44 46 44 44 43 42
44 44 44 44 42 41 42 44 43 43 43 43 42 42 42 41 41 41 42 42 43 43 45 45 43 41 39 38 39 39 43 47 47 48 49 50 50 50 51 52 52 47 40 40 40 39 39 39 39 48 50 45 42 40 47 48 47 46 45 44 43 43 43
41 42 42 42 42 42 43 43 42 42 41 41 41 40 40 40 40 40 41 42 42 42 43 43 41 42 40 38 38 38 38 40 38 42 46 47 49 51 50 49 49 43 39 39 39 38 38 39 39 44 43 42 39 40 43 46 46 45 43 43 42 42 41
39 39 40 41 41 40 40 41 41 41 40 40 40 40 40 39 40 39 39 40 41 41 42 41 41 40 40 39 39 38 38 37 37 41 42 44 46 48 48 48 45 39 39 39 39 38 37 38 42 40 40 40 39 40 44 43 43 42 42 42 42 42 41
MSLP
1017.61 1017.93 1018.13 1018.37 1018.53 1018.65 1018.81 1018.93 1018.97 1019.05 1019.13 1019.21 1019.33 1019.45 1019.53 1019.65 1019.81 1019.97 1020.09 1020.25 1020.37 1020.45 1020.53 1020.61 1020.65 1020.69 1020.77 1020.81 1020.85 1020.97 1021.13 1021.17 1021.29 1021.49 1021.81 1021.89 1021.93 1022.29 1022.49 1022.21 1022.25 1022.33 1022.45 1022.33 1022.45 1022.85 1023.49 1024.05 1024.29 1024.09 1024.01 1024.05 1024.05 1024.21 1024.37 1024.49 1024.57 1024.69 1024.85 1024.93 1024.97 1025.05 1025.05
1017.65 1017.97 1018.29 1018.49 1018.65 1018.73 1018.85 1019.05 1019.05 1019.13 1019.13 1019.17 1019.25 1019.33 1019.45 1019.57 1019.73 1019.89 1020.09 1020.21 1020.29 1020.41 1020.53 1020.65 1020.65 1020.65 1020.61 1020.73 1020.81 1020.89 1021.01 1021.25 1021.25 1021.29 1021.45 1021.69 1021.81 1022.09 1022.33 1022.53 1022.41 1022.49 1022.61 1022.65 1022.69 1022.69 1023.25 1024.01 1024.41 1024.41 1024.45 1024.33 1024.45 1024.69 1024.93 1024.93 1025.01 1025.09 1025.17 1025.21 1025.17 1025.21 1025.17
1017.93 1018.25 1018.33 1018.61 1018.69 1018.77 1018.93 1019.17 1019.21 1019.21 1019.21 1019.25 1019.33 1019.41 1019.45 1019.57 1019.69 1019.81 1019.93 1020.05 1020.17 1020.29 1020.41 1020.49 1020.57 1020.57 1020.57 1020.53 1020.57 1020.61 1020.77 1020.97 1021.33 1021.29 1021.29 1021.45 1021.61 1021.81 1021.85 1022.05 1022.37 1022.81 1022.81 1022.93 1023.01 1022.97 1023.17 1023.29 1023.97 1024.57 1024.57 1024.65 1024.89 1025.21 1025.09 1025.21 1025.25 1025.37 1025.45 1025.53 1025.57 1025.53 1025.45
1017.93 1018.09 1018.45 1018.69 1018.77 1018.85 1018.97 1019.21 1019.21 1019.29 1019.29 1019.37 1019.49 1019.57 1019.61 1019.69 1019.73 1019.81 1019.89 1020.09 1020.21 1020.25 1020.37 1020.49 1020.49 1020.53 1020.53 1020.57 1020.61 1020.69 1020.69 1020.81 1021.17 1021.45 1021.45 1021.49 1021.53 1021.65 1021.85 1021.89 1022.05 1022.05 1022.21 1022.61 1022.97 1022.97 1023.05 1023.61 1024.05 1024.49 1024.53 1024.61 1024.93 1025.25 1025.53 1025.41 1025.41 1025.45 1025.57 1025.65 1025.69 1025.73 1025.73
1017.69 1017.97 1018.17 1018.45 1018.61 1018.73 1018.93 1019.17 1019.33 1019.33 1019.37 1019.41 1019.49 1019.53 1019.69 1019.73 1019.81 1019.89 1019.97 1020.09 1020.21 1020.29 1020.41 1020.53 1020.61 1020.61 1020.69 1020.69 1020.73 1020.73 1020.77 1020.93 1021.21 1021.41 1021.49 1021.57 1021.61 1021.65 1021.77 1021.97 1022.01 1022.05 1022.01 1022.21 1022.61 1022.77 1023.01 1023.37 1023.57 1024.33 1024.65 1024.85 1025.09 1025.45 1025.45 1025.45 1025.45 1025.45 1025.53 1025.61 1025.73 1025.81 1025.85
1017.53 1017.81 1018.09 1018.37 1018.53 1018.65 1018.93 1019.09 1019.25 1019.29 1019.37 1019.37 1019.53 1019.53 1019.73 1019.77 1019.81 1019.89 1019.97 1020.05 1020.21 1020.33 1020.41 1020.49 1020.65 1020.73 1020.73 1020.77 1020.81 1020.85 1020.93 1020.89 1021.01 1021.21 1021.41 1021.49 1021.57 1021.61 1021.65 1021.89 1022.01 1022.09 1022.05 1022.25 1022.49 1022.85 1023.05 1023.21 1023.53 1024.29 1024.73 1024.81 1025.33 1025.61 1025.61 1025.45 1025.53 1025.65 1025.69 1025.65 1025.73 1025.85 1025.85
1017.53 1017.73 1017.97 1018.17 1018.45 1018.49 1018.69 1018.85 1019.05 1019.13 1019.21 1019.25 1019.53 1019.61 1019.73 1019.85 1019.89 1019.89 1020.01 1020.17 1020.25 1020.33 1020.41 1020.53 1020.65 1020.77 1020.81 1020.81 1020.89 1020.89 1020.97 1021.05 1021.09 1021.09 1021.25 1021.49 1021.61 1021.57 1021.69 1021.85 1022.05 1022.05 1022.25 1022.33 1022.49 1022.73 1023.05 1023.41 1023.93 1024.17 1024.81 1025.25 1025.45 1025.73 1025.77 1025.53 1025.65 1025.57 1025.69 1025.81 1025.89 1025.93 1025.97
1017.33 1017.65 1017.85 1017.97 1018.21 1018.45 1018.69 1018.77 1019.01 1019.17 1019.13 1019.37 1019.53 1019.73 1019.89 1019.89 1019.93 1020.05 1020.09 1020.17 1020.33 1020.37 1020.45 1020.53 1020.69 1020.81 1020.89 1020.93 1021.05 1021.09 1021.21 1021.33 1021.25 1021.25 1021.33 1021.45 1021.53 1021.61 1021.73 1021.69 1021.97 1022.13 1022.29 1022.41 1022.49 1022.69 1022.77 1023.01 1023.33 1023.85 1024.21 1025.25 1025.89 1025.77 1025.69 1025.69 1025.77 1025.69 1025.73 1025.89 1026.01 1026.01 1026.13
1017.25 1017.53 1017.81 1017.97 1018.09 1018.17 1018.45 1018.65 1018.97 1019.21 1019.29 1019.45 1019.73 1019.85 1019.93 1019.89 1019.93 1020.05 1020.21 1020.33 1020.45 1020.53 1020.53 1020.61 1020.73 1020.85 1020.97 1021.01 1021.17 1021.29 1021.29 1021.49 1021.41 1021.37 1021.49 1021.53 1021.61 1021.73 1021.69 1021.89 1021.97 1022.21 1022.37 1022.45 1022.53 1022.73 1022.85 1023.01 1023.25 1023.57 1023.69 1023.93 1024.61 1025.81 1025.85 1025.81 1025.81 1025.81 1025.93 1025.81 1025.97 1026.05 1026.17
1017.13 1017.29 1017.53 1017.85 1018.05 1018.33 1018.45 1018.69 1018.93 1019.25 1019.49 1019.61 1019.69 1019.89 1019.89 1020.01 1020.01 1020.05 1020.25 1020.45 1020.57 1020.61 1020.61 1020.73 1020.81 1020.97 1021.09 1021.21 1021.33 1021.41 1021.45 1021.57 1021.61 1021.65 1021.77 1021.69 1021.85 1021.89 1021.97 1022.01 1022.05 1022.29 1022.49 1022.57 1022.69 1022.85 1023.01 1023.25 1023.41 1023.53 1023.53 1023.57 1023.85 1024.69 1025.73 1025.81 1025.81 1025.81 1025.81 1025.81 1025.77 1025.97 1026.13
1016.85 1017.13 1017.41 1017.77 1018.13 1018.41 1018.73 1018.89 1019.17 1019.33 1019.53 1019.69 1019.73 1019.85 1019.97 1020.01 1020.13 1020.21 1020.29 1020.49 1020.65 1020.69 1020.69 1020.81 1020.89 1021.01 1021.13 1021.37 1021.53 1021.65 1021.77 1021.77 1021.65 1021.73 1021.85 1021.85 1021.85 1021.89 1021.97 1022.13 1022.21 1022.33 1022.53 1022.57 1022.73 1022.89 1023.05 1023.25 1023.45 1023.61 1023.73 1023.85 1023.77 1024.01 1024.69 1025.25 1025.53 1025.73 1025.53 1025.85 1025.89 1025.73 1026.17
1017.05 1017.25 1017.53 1017.85 1018.21 1018.53 1018.77 1018.97 1019.13 1019.33 1019.57 1019.65 1019.69 1019.81 1019.97 1020.13 1020.25 1020.41 1020.45 1020.53 1020.65 1020.73 1020.81 1020.89 1020.97 1021.09 1021.25 1021.41 1021.61 1021.69 1021.85 1021.85 1021.69 1021.73 1021.93 1021.89 1021.97 1021.89 1021.97 1022.17 1022.33 1022.45 1022.61 1022.69 1022.85 1023.01 1023.21 1023.37 1023.53 1023.65 1023.81 1023.93 1024.13 1023.89 1024.17 1024.69 1025.29 1025.45 1025.61 1025.57 1025.69 1025.97 1025.89
1017.09 1017.37 1017.65 1017.93 1018.37 1018.61 1018.77 1018.97 1019.21 1019.37 1019.45 1019.53 1019.61 1019.81 1019.97 1020.13 1020.29 1020.41 1020.53 1020.57 1020.69 1020.85 1020.89 1021.01 1021.09 1021.21 1021.37 1021.61 1021.69 1021.73 1021.89 1021.81 1021.77 1021.89 1021.97 1022.05 1022.05 1022.01 1022.05 1022.21 1022.41 1022.49 1022.65 1022.77 1022.89 1023.05 1023.21 1023.37 1023.45 1023.61 1023.77 1023.97 1024.13 1024.25 1024.13 1024.29 1024.49 1024.89 1025.61 1025.45 1025.53 1025.73 1025.97
1017.41 1017.57 1017.77 1018.05 1018.37 1018.65 1018.81 1018.93 1019.09 1019.21 1019.53 1019.53 1019.57 1019.77 1019.97 1020.21 1020.37 1020.41 1020.45 1020.53 1020.61 1020.81 1020.93 1021.05 1021.21 1021.29 1021.45 1021.65 1021.81 1021.85 1021.93 1021.85 1021.81 1022.05 1021.97 1021.97 1022.13 1022.09 1022.13 1022.33 1022.53 1022.57 1022.65 1022.69 1022.89 1023.09 1023.25 1023.37 1023.53 1023.65 1023.85 1023.97 1024.09 1024.25 1024.09 1024.33 1024.49 1025.05 1025.61 1026.01 1025.77 1025.69 1026.01
1017.49 1017.61 1017.81 1018.05 1018.25 1018.49 1018.65 1018.89 1019.17 1019.33 1019.45 1019.61 1019.49 1019.69 1019.97 1020.29 1020.45 1020.49 1020.45 1020.57 1020.69 1020.85 1020.97 1021.09 1021.25 1021.33 1021.45 1021.65 1021.85 1021.97 1021.97 1021.93 1021.97 1022.09 1022.09 1022.09 1022.17 1022.17 1022.13 1022.17 1022.57 1022.77 1022.73 1022.73 1022.93 1023.01 1023.17 1023.33 1023.53 1023.65 1023.77 1023.89 1023.97 1024.13 1024.17 1024.01 1024.69 1024.73 1025.09 1025.57 1025.61 1026.05 1026.09
1017.49 1017.69 1017.85 1018.01 1018.17 1018.33 1018.53 1018.89 1019.17 1019.33 1019.49 1019.61 1019.57 1019.61 1019.97 1020.29 1020.53 1020.57 1020.61 1020.73 1020.85 1020.97 1021.05 1021.13 1021.25 1021.29 1021.45 1021.53 1021.73 1021.97 1022.05 1022.01 1021.97 1022.05 1022.13 1022.21 1022.17 1022.21 1022.13 1022.25 1022.45 1022.65 1022.85 1022.89 1023.17 1023.21 1023.33 1023.37 1023.57 1023.65 1023.77 1024.01 1024.13 1024.37 1024.45 1024.33 1024.37 1024.73 1024.93 1025.21 1025.53 1025.57 1025.81
1017.53 1017.73 1017.81 1018.01 1018.21 1018.41 1018.61 1018.81 1019.13 1019.45 1019.49 1019.57 1019.45 1019.77 1020.13 1020.37 1020.57 1020.65 1020.73 1020.89 1021.01 1021.05 1021.17 1021.25 1021.29 1021.29 1021.33 1021.45 1021.61 1021.85 1022.01 1022.09 1022.13 1022.09 1022.09 1022.17 1022.21 1022.17 1022.17 1022.29 1022.57 1022.69 1022.73 1022.73 1022.97 1023.25 1023.53 1023.57 1023.61 1023.69 1023.77 1023.93 1024.13 1024.25 1024.37 1024.41 1024.21 1024.33 1024.97 1024.97 1025.45 1025.33 1025.65
1017.65 1017.81 1017.93 1018.09 1018.29 1018.41 1018.57 1018.81 1019.13 1019.41 1019.49 1019.53 1019.49 1019.73 1020.17 1020.53 1020.61 1020.69 1020.77 1020.89 1021.01 1021.09 1021.17 1021.25 1021.29 1021.37 1021.45 1021.49 1021.57 1021.73 1021.93 1022.05 1022.21 1022.29 1022.29 1022.33 1022.37 1022.29 1022.29 1022.29 1022.53 1022.65 1022.65 1022.81 1023.05 1023.05 1023.21 1023.37 1023.69 1023.81 1023.85 1023.97 1024.05 1024.21 1024.33 1024.33 1024.21 1024.25 1024.57 1024.77 1025.01 1025.61 1025.85
1017.49 1017.73 1017.97 1018.09 1018.25 1018.41 1018.61 1018.81 1019.13 1019.45 1019.41 1019.41 1019.61 1019.81 1020.13 1020.45 1020.65 1020.65 1020.77 1020.85 1020.93 1021.01 1021.17 1021.21 1021.17 1021.25 1021.37 1021.53 1021.69 1021.81 1021.93 1022.05 1022.21 1022.37 1022.45 1022.49 1022.49 1022.53 1022.41 1022.45 1022.57 1022.65 1022.65 1022.65 1022.81 1023.05 1023.17 1023.21 1023.45 1023.61 1023.77 1023.93 1024.05 1024.17 1024.25 1024.37 1024.33 1024.29 1024.33 1024.53 1024.77 1025.13 1025.73
1017.37 1017.69 1017.97 1018.13 1018.33 1018.57 1018.81 1019.13 1019.45 1019.61 1019.53 1019.45 1019.65 1019.93 1020.29 1020.49 1020.73 1020.81 1020.81 1020.89 1020.93 1021.01 1021.09 1021.17 1021.21 1021.25 1021.37 1021.49 1021.61 1021.77 1021.93 1022.09 1022.17 1022.25 1022.49 1022.57 1022.61 1022.65 1022.61 1022.57 1022.65 1022.69 1022.61 1022.61 1022.69 1022.81 1022.97 1023.17 1023.25 1023.33 1023.53 1023.73 1023.97 1024.09 1024.21 1024.25 1024.33 1024.37 1024.49 1024.65 1025.05 1025.09 1025.17
1017.49 1017.65 1017.85 1018.17 1018.41 1018.69 1019.05 1019.37 1019.61 1019.65 1019.65 1019.65 1019.77 1020.01 1020.17 1020.41 1020.57 1020.77 1020.73 1020.69 1020.81 1020.97 1021.01 1021.13 1021.25 1021.33 1021.45 1021.61 1021.65 1021.77 1021.89 1021.93 1022.01 1022.17 1022.29 1022.45 1022.49 1022.57 1022.69 1022.69 1022.61 1022.61 1022.57 1022.53 1022.49 1022.65 1022.77 1022.89 1023.17 1023.17 1023.53 1023.61 1023.77 1023.89 1024.05 1024.21 1024.33 1024.41 1024.49 1024.61 1024.65 1024.89 1025.13
1017.77 1017.77 1017.97 1018.29 1018.65 1018.81 1019.21 1019.57 1019.73 1019.81 1019.85 1019.93 1019.97 1020.09 1020.25 1020.41 1020.57 1020.73 1020.89 1020.85 1020.89 1021.01 1021.01 1021.05 1021.17 1021.25 1021.33 1021.53 1021.73 1021.73 1021.81 1021.89 1021.97 1022.05 1022.13 1022.17 1022.25 1022.25 1022.25 1022.33 1022.49 1022.49 1022.49 1022.45 1022.49 1022.53 1022.61 1022.73 1022.89 1023.01 1023.41 1023.57 1023.61 1023.73 1023.93 1024.13 1024.25 1024.37 1024.53 1024.61 1024.69 1025.05 1025.01
1018.01 1018.05 1018.17 1018.41 1018.65 1018.89 1019.33 1019.53 1019.77 1019.77 1019.65 1019.85 1020.21 1020.33 1020.37 1020.49 1020.61 1020.69 1020.77 1020.93 1020.97 1020.97 1020.97 1021.05 1021.09 1021.17 1021.29 1021.33 1021.49 1021.73 1021.89 1021.93 1021.93 1021.93 1021.97 1022.05 1022.13 1022.21 1022.21 1022.25 1022.33 1022.37 1022.41 1022.41 1022.49 1022.57 1022.69 1022.77 1022.81 1022.77 1022.93 1023.33 1023.45 1023.65 1023.81 1024.01 1024.25 1024.33 1024.45 1024.49 1024.45 1024.65 1024.81
1018.53 1018.65 1018.73 1019.09 1019.17 1019.25 1019.41 1019.61 1019.81 1019.89 1020.13 1020.45 1020.45 1020.41 1020.53 1020.57 1020.61 1020.73 1020.77 1020.85 1020.89 1020.93 1020.93 1020.89 1020.93 1021.09 1021.21 1021.41 1021.49 1021.61 1021.65 1021.69 1021.85 1021.93 1022.01 1022.05 1022.01 1022.01 1022.13 1022.29 1022.33 1022.29 1022.33 1022.37 1022.45 1022.57 1022.65 1022.69 1022.77 1022.89 1022.97 1023.01 1023.09 1023.21 1023.65 1023.93 1024.01 1024.29 1024.25 1024.13 1024.45 1024.61 1024.37
1018.69 1018.89 1018.93 1019.17 1019.45 1019.49 1019.45 1019.49 1019.77 1020.17 1020.45 1020.53 1020.45 1020.57 1020.57 1020.65 1020.77 1020.81 1020.89 1021.01 1021.09 1021.09 1021.05 1021.05 1021.13 1021.17 1021.29 1021.41 1021.45 1021.49 1021.65 1021.69 1021.77 1021.85 1021.89 1021.93 1021.93 1021.97 1021.93 1022.01 1022.21 1022.29 1022.21 1022.21 1022.33 1022.49 1022.65 1022.73 1022.81 1022.93 1023.01 1023.09 1023.21 1023.33 1023.29 1023.29 1023.61 1024.17 1024.21 1024.09 1024.29 1024.13 1024.21
1019.29 1019.45 1019.65 1019.73 1019.69 1019.57 1019.61 1019.93 1020.33 1020.53 1020.57 1020.69 1020.57 1020.57 1020.77 1020.73 1020.81 1020.97 1020.97 1020.93 1020.97 1021.05 1021.09 1021.17 1021.21 1021.25 1021.25 1021.37 1021.53 1021.61 1021.57 1021.69 1021.81 1021.81 1021.89 1021.89 1021.89 1021.93 1021.97 1022.05 1022.05 1022.17 1022.17 1022.17 1022.21 1022.41 1022.53 1022.69 1022.93 1023.09 1023.29 1023.45 1023.57 1023.57 1023.49 1023.49 1023.41 1023.25 1023.49 1023.77 1023.73 1023.93 1023.93
1020.21 1020.45 1020.49 1020.41 1020.37 1020.37 1020.37 1020.65 1020.89 1020.89 1020.81 1020.81 1020.85 1020.93 1020.97 1020.93 1021.05 1021.13 1021.25 1021.21 1021.13 1021.17 1021.21 1021.37 1021.37 1021.41 1021.61 1021.97 1022.05 1021.85 1021.53 1021.53 1021.61 1021.69 1021.77 1021.85 1021.93 1021.97 1022.01 1022.09 1022.13 1022.13 1022.21 1022.29 1022.33 1022.41 1022.57 1022.69 1022.89 1023.09 1023.25 1023.33 1023.29 1023.33 1023.53 1023.73 1023.89 1023.93 1023.77 1023.41 1023.33 1023.25 1023.49
1020.85 1021.05 1021.17 1021.17 1021.13 1021.45 1021.53 1021.37 1021.29 1021.37 1021.41 1021.57 1021.57 1021.57 1021.57 1021.41 1021.45 1021.45 1021.45 1021.41 1021.17 1021.13 1021.49 1021.77 1021.61 1021.65 1021.81 1021.85 1022.01 1022.25 1022.21 1021.97 1021.77 1021.65 1021.69 1021.73 1021.81 1021.89 1021.97 1022.13 1022.21 1022.17 1022.21 1022.33 1022.41 1022.53 1022.57 1022.61 1022.85 1023.09 1023.25 1023.25 1023.29 1023.41 1023.53 1023.53 1023.61 1023.69 1023.69 1023.77 1023.73 1023.49 1023.45
1021.57 1021.73 1021.81 1021.77 1021.81 1021.93 1022.09 1022.17 1022.09 1022.09 1022.05 1022.09 1022.05 1022.05 1022.05 1022.09 1021.97 1021.89 1021.97 1021.89 1021.57 1021.49 1021.77 1021.85 1021.77 1021.85 1022.05 1022.05 1022.09 1022.05 1022.17 1022.13 1022.09 1022.09 1022.01 1021.97 1021.97 1022.01 1022.09 1022.13 1022.13 1022.09 1022.05 1022.09 1022.05 1022.29 1022.41 1022.57 1022.73 1022.85 1023.01 1023.17 1023.33 1023.61 1023.73 1024.13 1024.25 1024.13 1024.01 1023.89 1023.81 1023.85 1023.81
1022.25 1022.41 1022.41 1022.33 1022.49 1022.61 1022.53 1022.57 1022.65 1022.61 1022.49 1022.65 1022.69 1022.61 1022.69 1022.69 1022.65 1022.45 1022.33 1022.33 1022.25 1022.29 1022.25 1022.29 1022.13 1022.05 1022.09 1022.21 1022.13 1022.05 1022.13 1022.13 1022.05 1021.93 1021.77 1021.77 1021.81 1021.89 1021.97 1022.05 1022.09 1022.09 1022.05 1021.97 1021.89 1022.09 1022.33 1022.53 1022.61 1022.69 1022.81 1022.97 1023.29 1023.41 1023.53 1024.17 1024.17 1024.01 1023.89 1023.85 1023.73 1023.69 1024.09
1022.73 1022.93 1022.93 1023.05 1023.13 1023.13 1023.01 1022.97 1023.01 1023.09 1023.01 1023.09 1023.09 1023.25 1023.17 1022.93 1022.89 1022.85 1022.77 1022.77 1022.81 1022.77 1022.77 1022.69 1022.65 1022.53 1022.41 1022.33 1022.33 1022.25 1022.25 1022.17 1022.05 1022.01 1021.85 1021.81 1021.85 1021.89 1021.85 1021.85 1021.93 1021.97 1021.97 1021.89 1021.89 1022.13 1022.33 1022.53 1022.65 1022.69 1022.85 1023.01 1023.17 1023.21 1023.41 1024.09 1024.17 1024.21 1024.21 1024.01 1023.81 1023.77 1023.93
1023.29 1023.45 1023.57 1023.69 1023.65 1023.57 1023.57 1023.57 1023.57 1023.53 1023.53 1023.53 1023.61 1023.49 1023.41 1023.29 1023.17 1023.17 1023.21 1023.21 1023.09 1023.01 1023.01 1022.89 1022.89 1022.93 1022.77 1022.65 1022.57 1022.49 1022.45 1022.33 1022.13 1021.89 1021.85 1021.77 1021.85 1022.01 1021.93 1021.93 1021.93 1021.93 1021.89 1021.77 1021.89 1021.97 1022.21 1022.45 1022.49 1022.61 1022.65 1022.93 1023.01 1023.05 1023.05 1023.61 1023.53 1023.77 1023.97 1023.97 1024.25 1024.21 1024.37
1023.61 1023.65 1023.77 1023.81 1023.81 1023.85 1023.85 1023.81 1023.81 1023.85 1023.93 1023.93 1023.97 1023.93 1023.85 1023.69 1023.53 1023.57 1023.61 1023.53 1023.49 1023.37 1023.25 1023.17 1023.13 1023.13 1023.09 1022.93 1022.89 1022.85 1022.73 1022.49 1022.17 1021.97 1022.01 1022.09 1021.97 1021.81 1021.85 1021.77 1021.73 1021.85 1021.93 1021.97 1021.93 1021.97 1022.09 1022.33 1022.25 1022.41 1022.65 1022.77 1022.85 1022.65 1023.05 1023.57 1023.61 1023.49 1023.81 1023.81 1024.33 1024.57 1024.77
1024.05 1024.13 1024.17 1024.13 1024.01 1024.05 1024.09 1024.09 1024.01 1023.93 1024.05 1024.09 1024.05 1024.01 1024.01 1023.93 1023.85 1023.77 1023.85 1023.85 1023.81 1023.69 1023.57 1023.57 1023.61 1023.49 1023.37 1023.25 1023.13 1023.01 1022.73 1022.57 1022.41 1022.33 1022.21 1022.13 1022.09 1021.93 1021.65 1021.49 1021.45 1021.61 1021.81 1021.93 1022.05 1022.17 1022.33 1022.37 1022.33 1022.29 1022.41 1022.37 1022.17 1022.17 1022.93 1023.29 1023.57 1023.49 1023.77 1024.17 1024.45 1024.77 1024.97
1024.25 1024.25 1024.29 1024.25 1024.29 1024.37 1024.41 1024.37 1024.33 1024.25 1024.17 1024.17 1024.25 1024.29 1024.25 1024.17 1024.13 1024.05 1024.01 1023.97 1023.93 1023.89 1023.81 1023.73 1023.81 1023.77 1023.69 1023.61 1023.45 1023.29 1023.17 1022.97 1022.93 1022.77 1022.41 1022.13 1021.89 1021.65 1021.49 1021.33 1021.17 1021.29 1021.61 1021.77 1021.93 1022.13 1022.29 1022.41 1022.53 1022.45 1022.09 1022.01 1022.17 1022.45 1022.61 1022.97 1023.41 1023.77 1024.09 1024.37 1024.61 1024.81 1024.93
1024.81 1024.77 1024.77 1024.69 1024.57 1024.57 1024.53 1024.49 1024.45 1024.41 1024.41 1024.41 1024.41 1024.49 1024.49 1024.45 1024.33 1024.25 1024.21 1024.17 1024.09 1024.05 1023.93 1023.77 1023.81 1023.69 1023.69 1023.73 1023.69 1023.65 1023.61 1023.49 1023.25 1023.21 1022.81 1022.21 1021.81 1021.49 1021.37 1021.37 1021.33 1021.37 1021.49 1021.61 1021.81 1021.93 1021.97 1022.09 1022.25 1022.21 1021.93 1022.09 1022.29 1022.41 1022.73 1023.13 1023.37 1023.65 1024.01 1024.37 1024.57 1024.81 1025.13
1025.21 1025.17 1025.09 1024.97 1024.93 1024.97 1024.89 1024.81 1024.73 1024.77 1024.69 1024.65 1024.65 1024.65 1024.69 1024.65 1024.57 1024.57 1024.49 1024.49 1024.45 1024.41 1024.29 1024.09 1023.85 1023.77 1023.65 1023.61 1023.65 1023.65 1023.57 1023.49 1023.41 1023.21 1023.09 1022.73 1022.21 1021.89 1021.65 1021.45 1021.33 1021.33 1021.33 1021.33 1021.49 1021.65 1021.73 1021.77 1021.69 1021.65 1021.93 1022.17 1022.57 1023.09 1023.45 1023.77 1023.93 1024.09 1024.13 1024.37 1024.49 1025.01 1025.33
Wind_Speed
7 6 5 4 3 4 5 3 3 2 2 4 5 4 5 5 5 5 4 4 5 5 4 5 5 4 3 2 4 4 4 5 6 6 5 5 6 2 2 3 5 5 3 3 6 5 6 7 6 6 6 6 7 7 7 6 6 5 5 4 4 4 4
5 6 5 4 5 4 6 3 4 3 3 3 4 5 5 5 4 5 5 5 4 4 4 4 4 5 6 5 4 4 6 5 5 4 5 5 5 4 4 4 5 5 5 4 4 4 5 7 5 5 6 5 8 7 6 6 5 5 5 4 4 4 4
6 5 5 6 5 5 6 4 3 4 3 4 4 3 3 4 4 4 5 4 4 3 3 4 4 4 4 4 5 5 5 6 4 5 6 5 3 5 5 6 5 4 6 5 4 6 6 4 7 7 6 6 5 5 6 5 6 5 5 4 4 4 4
7 8 7 5 5 5 7 4 4 4 3 4 3 3 3 3 4 4 5 5 4 4 4 4 4 4 3 3 2 3 4 5 5 5 4 4 4 5 5 6 6 7 6 5 7 5 5 6 8 7 5 6 7 5 5 4 4 4 4 4 4 3 3
9 8 8 8 6 6 6 6 4 4 3 3 3 4 3 3 4 4 4 4 5 5 5 4 4 3 3 3 3 3 2 1 4 6 5 5 4 3 4 4 5 4 3 6 6 6 7 8 8 8 6 6 6 4 2 3 4 4 4 4 3 3 3
9 8 8 8 6 7 6 6 5 5 3 4 2 4 3 4 5 5 4 5 5 4 4 5 4 4 4 4 3 3 2 4 4 6 6 6 6 5 5 3 4 3 4 4 6 7 6 7 9 9 6 3 5 3 1 2 2 2 3 3 3 3 3
8 8 8 8 7 7 7 7 7 7 6 5 4 3 5 4 3 4 5 5 4 5 5 5 5 4 4 4 4 4 3 2 2 4 5 6 4 3 5 5 4 4 4 6 7 8 9 9 9 10 9 6 5 3 1 1 2 2 2 2 2 2 2
9 8 8 8 8 7 5 7 5 5 6 5 5 4 3 4 5 5 4 5 4 5 5 5 5 5 4 5 4 4 3 2 2 3 4 5 5 6 5 6 6 5 6 6 7 8 8 9 10 10 11 10 4 2 2 2 2 2 2 2 1 2 2
7 7 6 5 6 6 7 6 6 5 4 5 3 3 3 5 6 5 5 5 4 4 4 5 5 5 5 5 4 4 4 3 3 4 3 4 4 5 5 5 6 5 5 6 5 7 7 8 8 8 7 9 10 4 1 1 2 1 1 2 1 1 2
9 9 8 7 6 4 5 5 6 5 3 3 4 2 4 3 4 6 6 5 4 3 5 5 6 6 5 5 5 4 4 4 5 5 4 4 4 4 4 5 5 6 5 5 5 6 7 6 6 6 5 8 9 9 5 3 3 3 3 3 3 2 2
8 7 7 8 6 6 3 4 4 5 4 3 3 3 3 4 4 4 6 5 4 3 4 5 6 6 6 6 5 5 4 3 5 5 5 4 4 4 5 6 5 6 5 6 7 7 7 7 7 6 3 2 5 9 5 6 5 3 4 2 1 3 2
4 6 5 6 6 6 5 4 4 4 5 4 5 4 5 4 4 4 4 5 4 4 4 5 5 6 5 6 5 5 4 4 5 6 4 4 3 4 6 7 5 5 5 6 7 6 6 6 6 5 4 4 2 5 7 5 5 4 2 4 4 2 3
6 7 7 8 6 6 6 5 5 4 5 5 5 5 5 5 4 5 4 5 5 4 5 4 5 6 6 5 5 5 4 4 6 5 4 5 4 5 6 7 5 5 5 6 6 6 6 6 6 5 4 4 3 4 5 4 5 6 4 3 4 3 2
5 5 6 6 7 6 5 5 5 5 4 4 6 5 5 5 4 5 5 4 5 5 5 4 4 5 6 5 5 5 4 5 6 4 4 5 5 5 6 7 6 4 5 6 5 5 5 5 5 4 3 4 4 4 5 4 4 4 2 0 2 3 3
6 6 7 7 7 7 6 5 4 4 4 4 5 6 5 4 3 4 4 5 5 5 5 5 4 5 6 5 4 3 4 5 5 4 4 5 5 4 5 6 6 6 5 6 5 5 5 5 5 5 4 4 5 5 4 4 3 5 6 3 2 1 3
6 6 7 7 7 7 6 5 4 5 5 5 4 6 6 4 4 3 3 4 4 4 5 5 4 5 5 5 5 4 4 4 4 4 4 4 4 3 6 6 5 5 4 6 5 3 3 4 3 5 5 4 4 3 3 1 4 4 7 5 2 4 4
7 7 8 7 7 5 5 5 5 4 5 5 6 5 4 4 4 3 3 3 4 4 4 4 4 4 5 5 5 5 4 3 4 4 5 4 4 4 5 5 4 5 5 6 4 4 4 4 4 5 5 5 5 5 5 3 2 5 4 6 5 5 4
6 5 5 5 6 6 6 5 4 5 5 5 5 6 4 2 3 4 5 5 5 4 5 5 5 4 3 3 4 5 5 4 4 4 3 3 2 4 3 4 5 5 5 5 3 3 3 5 4 4 5 4 5 4 4 4 4 3 6 7 5 2 2
7 6 5 5 5 5 5 5 4 3 3 6 4 5 5 3 3 4 3 5 5 5 5 5 5 5 5 4 3 3 3 3 4 4 3 3 3 3 4 5 5 4 5 5 4 4 3 4 4 4 5 4 4 4 5 4 3 4 6 6 6 4 2
7 6 6 6 6 5 4 2 1 0 1 4 5 5 3 2 1 2 3 3 3 4 4 4 3 3 3 4 4 4 3 3 4 4 5 5 4 4 3 4 4 4 4 5 5 5 5 5 4 5 5 5 4 5 5 4 4 4 5 5 2 2 4
7 7 7 7 7 7 7 5 4 2 2 3 4 5 5 4 3 2 3 4 4 3 4 3 2 2 3 3 3 4 4 5 4 4 4 5 5 6 6 6 6 6 5 5 5 5 6 5 4 5 3 4 5 6 5 4 4 4 5 4 4 5 3
4 7 7 7 7 7 6 5 3 3 2 1 1 3 3 3 3 2 1 1 1 1 3 3 3 3 4 3 3 4 5 4 4 4 4 3 3 4 4 5 6 6 6 5 5 6 5 6 6 4 3 4 5 5 5 4 4 4 4 4 4 2 4
4 4 6 5 6 5 3 2 1 2 2 2 1 0 2 2 3 3 3 2 1 1 3 3 4 6 5 4 5 3 2 3 4 4 3 3 3 4 4 4 3 5 6 6 7 7 7 8 5 4 6 6 6 5 5 5 5 5 5 5 6 6 6
6 6 7 5 4 5 4 4 4 4 5 3 2 1 1 2 3 3 3 3 3 4 4 4 6 7 8 6 4 4 5 5 4 3 4 4 6 6 5 4 3 2 4 5 6 7 8 8 7 5 8 8 8 8 6 5 5 5 6 6 4 4 6
7 6 6 5 5 6 6 6 6 4 2 2 4 4 3 1 1 0 1 2 2 3 4 4 5 5 6 7 7 5 4 4 5 5 5 5 6 6 6 5 4 3 3 4 4 5 5 5 4 3 5 8 7 5 5 7 6 4 5 6 5 7 6
8 7 6 6 6 7 8 8 6 5 5 3 5 6 4 4 4 3 2 1 1 1 2 4 6 6 6 5 6 5 4 4 5 5 5 6 6 6 6 5 6 4 4 4 3 3 3 3 2 2 0 2 3 5 6 6 6 6 6 6 7 7 9
10 9 8 8 8 8 8 7 5 4 4 5 6 5 4 5 4 5 4 4 4 4 4 6 7 7 8 8 5 3 5 5 5 5 6 6 6 6 6 6 6 6 5 4 4 4 4 4 4 4 3 3 4 4 4 4 6 8 6 6 8 9 8
11 9 9 9 10 10 8 7 8 7 6 6 7 6 6 6 6 5 5 5 5 5 4 7 6 6 6 5 5 3 4 4 4 5 6 6 6 6 6 5 5 6 5 5 4 5 5 6 5 4 4 4 4 2 1 1 2 0 3 4 4 6 5
11 10 9 10 11 10 9 8 8 7 7 7 7 6 7 7 7 7 6 6 6 7 7 11 11 9 6 5 3 1 1 2 4 5 6 5 5 4 4 4 5 6 6 6 7 9 7 5 5 5 6 5 4 1 1 1 3 3 2 1 1 3 3
11 10 9 11 10 9 9 9 8 6 8 7 7 8 7 7 6 7 8 8 8 7 8 13 15 13 10 5 2 2 2 2 3 5 6 6 5 5 5 5 6 6 7 7 8 8 9 7 5 6 6 6 4 4 3 2 5 6 6 8 11 14 14
10 9 9 9 9 8 8 8 8 7 8 7 8 7 5 6 7 8 8 8 8 7 7 10 15 15 12 8 3 3 3 3 4 5 6 6 5 5 6 8 7 6 7 8 7 7 8 8 6 6 6 6 6 7 5 2 3 4 8 11 13 15 16
9 10 9 8 7 8 8 7 5 5 6 6 7 6 7 7 6 7 7 7 9 8 7 8 13 14 14 9 4 3 3 3 4 6 5 7 6 5 6 6 8 9 8 8 8 8 9 8 7 7 8 7 8 9 8 7 7 7 6 8 6 8 9
8 8 8 7 7 6 5 6 7 6 5 5 5 6 5 5 6 6 6 6 6 7 7 8 10 14 13 13 5 2 2 3 4 6 5 4 6 6 6 7 7 9 10 9 9 8 8 11 9 7 6 8 8 11 6 6 5 7 7 8 7 6 7
8 7 6 6 6 6 5 6 5 6 5 5 5 6 7 6 6 6 6 6 5 6 6 7 8 11 13 13 11 4 3 3 5 6 6 5 5 6 7 6 5 2 3 6 7 8 7 10 10 8 8 9 10 6 9 7 7 7 8 8 7 6 6
7 6 6 5 6 6 5 5 5 5 4 5 5 5 6 6 6 6 6 6 6 6 6 8 6 7 10 11 12 11 6 6 7 6 7 7 6 6 6 7 7 5 7 6 5 5 7 8 10 8 9 12 8 13 11 7 6 6 6 6 6 5 5
6 5 5 5 6 7 5 5 6 5 5 5 5 5 5 5 5 6 6 6 6 7 7 6 8 8 8 8 8 8 7 5 10 6 6 7 8 7 5 6 6 7 8 6 4 3 6 9 8 10 14 10 10 13 10 7 8 8 7 7 7 7 6
6 5 5 5 5 5 5 4 4 4 5 5 5 5 5 5 5 5 6 5 4 5 5 7 7 9 9 10 8 8 8 7 6 4 5 6 7 7 7 7 6 7 7 5 3 3 6 8 9 12 10 8 9 9 6 5 5 6 7 7 7 6 4
Wind_Direction
150 151 147 127 108 127 115 112 105 72 69 105 127 132 144 142 141 139 144 152 166 176 172 189 189 187 168 182 178 167 143 161 163 162 176 176 167 160 19 58 88 100 94 105 132 146 126 129 102 81 81 83 77 70 63 54 50 62 64 49 61 65 69
127 126 118 114 122 119 107 88 93 88 69 62 84 122 144 145 146 145 142 138 145 163 163 161 169 168 172 170 171 162 170 157 173 161 154 178 144 159 118 52 79 84 74 64 97 81 127 129 115 113 113 81 77 63 55 50 44 43 44 48 52 53 55
113 106 117 120 121 125 116 112 112 97 84 67 54 65 109 130 132 129 121 126 131 131 122 140 137 145 170 180 184 184 173 163 149 164 176 168 166 155 160 151 124 112 94 74 47 107 62 43 132 132 119 117 87 47 42 41 42 42 46 42 47 41 44
138 131 121 115 119 117 119 117 115 104 73 79 75 66 83 118 118 118 124 128 124 121 124 132 157 164 173 162 148 158 176 174 145 137 112 145 153 149 147 158 157 153 159 157 163 156 137 130 122 119 118 87 95 76 27 39 50 50 53 49 46 46 42
146 143 142 147 151 140 134 127 113 102 85 67 66 86 79 108 120 115 117 111 110 113 109 121 118 112 108 103 106 134 168 92 115 129 137 145 154 148 145 145 157 140 125 140 157 143 140 139 126 131 111 101 84 74 118 65 53 56 54 52 51 53 50
146 143 144 143 153 143 143 132 135 138 132 101 82 103 121 143 140 127 125 120 108 106 117 106 96 102 115 111 115 103 122 161 158 143 147 164 161 162 180 178 134 121 118 124 120 131 115 121 128 125 112 96 123 120 48 52 45 41 41 61 62 57 62
145 146 149 149 162 157 156 153 156 159 160 166 166 166 170 145 127 130 124 111 110 114 111 107 102 100 104 111 118 123 136 150 121 149 139 137 146 143 143 138 139 120 127 137 134 133 136 134 138 132 126 105 99 109 66 13 22 77 45 37 44 69 65
147 149 155 155 156 155 163 150 157 156 154 176 168 167 156 136 132 120 122 115 117 118 118 104 94 86 87 87 73 77 58 38 74 88 94 127 138 143 152 155 144 140 142 144 145 147 147 149 148 151 138 129 96 22 19 15 7 32 139 16 23 67 69
138 136 138 145 151 153 155 155 156 164 168 154 162 132 147 143 136 124 110 108 109 112 107 109 102 93 91 94 84 76 70 32 64 70 54 93 114 132 139 137 123 127 140 143 141 146 151 151 149 152 144 132 135 133 4 87 360 42 205 111 6 77 135
148 152 154 156 153 149 147 148 145 150 141 145 135 121 120 113 126 129 120 108 92 98 99 92 92 90 88 84 90 83 71 49 75 62 41 63 65 95 94 104 117 126 131 126 125 137 141 141 147 149 161 147 144 129 141 166 227 164 225 194 143 194 163
156 148 146 147 140 130 108 102 103 127 149 137 119 106 102 109 107 109 116 103 95 82 97 86 85 89 92 83 85 80 66 67 85 63 46 63 49 76 93 85 102 113 132 134 142 142 147 151 154 163 146 113 146 140 156 150 195 209 171 217 211 147 190
132 139 140 133 132 133 139 139 145 142 126 130 120 115 104 101 103 92 101 108 95 93 81 84 88 80 82 87 66 66 39 50 74 67 27 49 25 76 87 86 86 101 119 124 131 135 138 147 161 154 149 142 84 134 134 120 138 222 172 178 243 254 159
151 148 146 140 137 143 153 147 141 142 157 139 129 124 118 122 123 116 109 115 105 89 85 72 85 93 82 77 81 67 35 66 72 67 52 37 47 65 86 87 87 109 118 121 130 146 156 162 162 168 160 149 121 123 126 122 131 168 203 171 199 208 179
140 142 138 129 132 147 153 155 157 152 139 143 134 125 123 129 135 135 134 133 127 119 110 92 80 95 90 84 66 83 59 67 78 53 69 49 37 70 85 98 95 100 129 128 143 148 156 169 170 175 139 143 142 152 140 113 120 117 109 226 139 179 163
149 148 138 136 144 152 159 152 145 140 153 161 138 129 123 132 141 146 140 138 125 122 119 113 108 103 107 99 83 68 83 86 84 62 71 67 41 44 71 84 89 100 111 120 132 153 166 170 182 179 192 183 184 182 192 113 128 145 174 168 140 72 153
154 150 141 147 154 160 155 136 143 157 158 160 133 127 134 137 155 153 139 132 123 120 125 122 124 116 123 125 119 93 96 116 124 110 94 104 85 72 73 76 69 92 113 103 98 107 126 172 178 200 205 191 202 201 243 88 125 136 166 199 180 159 176
148 153 153 158 160 152 141 149 153 165 164 159 143 117 106 135 146 148 137 124 129 132 129 132 132 139 149 144 136 136 130 119 127 139 147 160 141 96 110 92 84 91 84 77 63 104 119 145 173 201 218 209 193 186 196 220 154 132 166 166 214 189 181
138 137 139 141 146 142 145 148 156 170 158 150 129 117 111 115 146 145 153 159 151 157 163 155 143 144 153 152 147 147 150 148 150 157 166 173 147 133 117 119 145 131 117 105 89 78 106 125 138 161 191 198 190 180 183 199 171 131 145 182 186 176 131
135 132 130 125 132 131 133 151 161 172 165 137 115 109 130 143 177 169 167 171 170 164 165 168 164 168 164 152 132 128 136 149 158 154 166 211 160 162 150 154 159 158 136 136 162 148 132 128 129 136 158 174 174 168 179 190 155 146 169 179 168 154 162
130 124 120 111 96 87 83 70 46 81 108 124 125 122 112 151 214 182 165 154 158 162 163 160 159 152 150 149 148 148 155 164 172 175 171 178 184 168 163 149 164 178 164 154 155 166 148 135 138 145 158 158 154 154 165 170 158 152 164 146 136 157 150
130 122 101 82 78 74 63 55 46 66 84 103 122 135 152 180 215 186 186 182 179 159 148 154 159 156 139 146 153 167 181 180 178 182 188 190 184 175 176 181 181 193 188 186 169 167 156 149 144 137 156 145 149 150 163 155 150 159 158 172 167 167 181
84 91 90 95 84 70 67 64 35 14 56 49 107 147 154 159 187 238 254 208 167 126 152 173 177 173 170 169 157 178 188 186 178 195 209 218 217 198 202 194 188 187 200 190 186 167 176 157 148 153 183 153 151 158 153 162 164 158 164 168 159 101 144
67 66 77 67 90 96 87 89 78 32 19 9 303 139 145 163 193 215 227 244 205 197 217 207 196 187 180 181 182 179 177 201 202 207 211 238 273 267 246 238 225 195 191 184 181 181 172 178 189 175 167 168 164 162 172 168 176 181 166 180 191 169 169
56 60 69 68 84 113 114 98 72 48 36 359 353 39 130 193 222 234 230 218 221 232 244 241 224 200 196 188 179 186 193 212 199 214 224 229 241 246 249 233 252 262 189 182 184 188 191 194 197 184 174 183 175 166 161 174 197 176 184 199 186 184 198
79 73 79 81 80 95 94 89 82 87 89 47 31 42 58 63 69 359 292 294 279 277 279 299 303 263 233 212 204 200 199 199 202 209 214 222 240 248 255 254 249 268 243 217 182 178 198 210 210 200 185 189 191 190 175 172 175 183 192 195 193 210 193
70 66 61 70 74 78 83 76 69 58 47 46 68 65 51 56 35 31 75 105 303 300 286 331 326 302 264 234 229 236 221 211 207 221 219 226 232 241 247 258 266 268 264 268 232 176 177 199 222 239 216 215 237 234 245 240 202 197 176 196 203 209 206
61 52 45 49 52 54 62 64 62 56 53 41 51 50 47 57 50 48 40 40 9 6 12 17 14 3 360 356 330 258 239 219 224 228 228 227 231 236 236 235 245 251 251 250 237 205 191 200 191 186 183 197 229 241 260 283 290 296 245 213 206 214 218
61 53 51 56 64 53 39 44 45 34 47 43 38 33 23 24 24 25 19 13 20 16 31 23 23 16 36 52 43 360 316 312 273 250 243 233 230 233 233 227 226 243 248 228 221 199 199 204 191 191 176 200 204 277 42 15 326 258 242 257 258 256 232
56 53 48 53 52 53 48 38 37 24 43 43 40 39 31 33 27 28 24 22 27 20 6 9 10 13 34 43 47 11 334 306 303 306 299 287 279 275 274 251 247 255 255 256 243 206 205 179 184 199 202 200 189 149 51 9 331 264 260 259 251 289 258
63 55 55 55 49 44 45 37 32 22 44 39 41 38 37 37 29 35 34 31 29 22 20 11 9 3 1 17 34 346 321 299 281 273 267 262 259 260 252 237 235 245 250 251 248 218 202 175 199 208 215 212 202 186 223 26 43 61 89 89 81 73 57
65 58 53 53 53 44 41 40 37 24 45 37 39 27 20 39 38 37 38 34 29 35 22 14 17 9 0 352 360 337 335 317 296 280 280 276 261 255 250 244 232 235 242 247 251 216 197 180 199 206 209 209 206 219 224 136 100 68 82 84 90 94 90
73 71 67 59 55 54 43 40 29 30 36 39 39 24 27 28 29 34 33 31 27 34 21 13 19 18 15 1 350 338 327 307 291 281 283 293 300 279 280 264 244 239 236 246 241 223 198 186 210 204 212 199 215 222 212 168 153 134 122 94 77 82 82
62 68 70 68 58 55 55 54 41 42 36 35 37 32 25 28 30 25 17 24 24 23 21 15 15 16 15 13 11 312 316 306 281 288 301 288 296 285 263 268 255 242 248 259 260 242 214 198 208 212 185 206 212 230 176 165 179 148 141 134 125 97 112
63 63 61 64 68 63 49 49 48 49 40 30 36 32 28 21 21 13 15 14 19 19 20 19 18 19 13 11 9 6 331 317 311 305 297 285 266 276 282 275 274 287 265 253 258 264 249 222 221 212 201 210 220 180 134 164 174 158 133 133 122 115 103
49 50 45 51 62 61 51 50 48 50 43 45 40 33 25 22 17 9 358 4 10 6 7 19 13 35 28 17 13 8 351 328 324 318 298 280 279 271 270 286 291 320 356 349 319 281 254 241 235 237 223 219 172 148 168 160 137 130 116 113 121 114 110
45 45 46 44 50 47 34 39 38 44 47 48 50 42 31 17 17 9 2 359 359 355 356 355 11 7 21 31 22 19 357 327 318 313 292 286 286 286 300 298 294 330 340 341 331 280 240 226 218 224 232 207 173 171 156 147 150 143 134 133 125 126 116
50 47 43 46 53 54 41 36 42 33 32 31 22 22 14 9 15 10 359 350 348 351 347 348 346 1 358 5 18 17 7 347 317 296 299 288 293 294 292 292 297 311 319 323 304 224 216 205 208 220 225 197 145 116 94 96 95 117 128 129 127 117 126